ORBCOMM-X 1 21576U 91050C 26071.58413724 .00000377 00000+0 12390-3 0 9990 2 21576 98.3061 137.2569 0004870 95.6871 264.4876 14.43519572820837 ORBCOMM FM01 1 23545U 95017A 26071.54442476 .00006134 00000+0 57226-3 0 9991 2 23545 69.9607 122.7488 0007450 272.6437 87.3867 14.94666772652540 ORBCOMM FM02 1 23546U 95017B 26071.57525324 .00007612 00000+0 67063-3 0 9991 2 23546 69.9625 140.6602 0008681 273.8278 86.1888 14.96792236652234 ORBCOMM FM08 1 25112U 97084A 26071.24868244 .00001777 00000+0 52329-3 0 9998 2 25112 45.0121 159.9186 0007227 186.1049 173.9716 14.46992778480184 ORBCOMM FM10 1 25113U 97084B 26071.27413212 .00001592 00000+0 47585-3 0 9996 2 25113 45.0139 162.7014 0004706 159.7037 200.4002 14.46717207655324 ORBCOMM FM11 1 25114U 97084C 26071.32619063 .00001722 00000+0 51403-3 0 9994 2 25114 45.0120 163.5831 0005494 157.7173 202.3918 14.46452853480286 ORBCOMM FM12 1 25115U 97084D 26071.62992346 .00001668 00000+0 49899-3 0 9991 2 25115 45.0126 161.8421 0004642 161.8330 198.2688 14.46482240480127 ORBCOMM FM09 1 25116U 97084E 26071.27512037 .00001657 00000+0 49776-3 0 9990 2 25116 45.0129 164.7949 0005259 141.0719 219.0512 14.46303469480273 ORBCOMM FM05 1 25117U 97084F 26071.53901353 .00001687 00000+0 49777-3 0 9997 2 25117 45.0131 158.4863 0002754 187.8134 172.2675 14.47102307479466 ORBCOMM FM06 1 25118U 97084G 26071.30454457 .00001911 00000+0 55651-3 0 9999 2 25118 45.0121 159.0139 0002153 208.7154 200.1364 14.47282645480357 ORBCOMM FM07 1 25119U 97084H 26070.61670993 .00001776 00000+0 52004-3 0 9996 2 25119 45.0117 163.0640 0003047 167.4262 192.6667 14.47283007480241 ORBCOMM FM03 1 25158U 98007B 26071.53216092 .00001115 00000+0 43002-3 0 9998 2 25158 107.9626 327.1524 0042908 140.3193 220.1099 14.35310113462537 ORBCOMM FM04 1 25159U 98007C 26071.54081428 .00000993 00000+0 38723-3 0 9990 2 25159 107.9612 330.5700 0038698 137.5464 222.8680 14.35535852462722 ORBCOMM FM17 1 25413U 98046A 26071.42610217 .00001005 00000+0 39299-3 0 9991 2 25413 44.9939 71.0190 0000651 169.9077 190.1783 14.35750327441717 ORBCOMM FM18 1 25414U 98046B 26070.98952893 .00001157 00000+0 41338-3 0 9996 2 25414 44.9945 343.0996 0003348 202.1183 157.9522 14.39451513442829 ORBCOMM FM19 1 25415U 98046C 26071.04274013 .00001343 00000+0 47428-3 0 9999 2 25415 44.9959 345.2496 0002064 199.2380 175.2362 14.39279234442781 ORBCOMM FM20 1 25416U 98046D 26070.95765371 .00000927 00000+0 35094-3 0 9994 2 25416 44.9959 352.5229 0001128 303.8688 56.2053 14.37901504442797 ORBCOMM FM16 1 25417U 98046E 26071.23993185 .00001387 00000+0 48264-3 0 9997 2 25417 44.9950 338.9990 0003458 223.6797 136.3779 14.39843251442870 ORBCOMM FM15 1 25418U 98046F 26071.07636238 .00000579 00000+0 22938-3 0 9995 2 25418 44.9986 345.7494 0003178 227.1451 132.9131 14.39466636442838 ORBCOMM FM14 1 25419U 98046G 26070.95051032 .00001267 00000+0 44434-3 0 9995 2 25419 44.9971 343.7356 0001942 227.9816 132.0867 14.39903295442797 ORBCOMM FM13 1 25420U 98046H 26071.45294122 .00001221 00000+0 44251-3 0 9999 2 25420 44.9991 352.1244 0003759 198.5360 161.5352 14.38455941441857 ORBCOMM FM21 1 25475U 98053A 26071.39080392 .00001012 00000+0 37811-3 0 9994 2 25475 45.0077 78.7320 0001344 246.2304 113.8403 14.38021540435840 ORBCOMM FM22 1 25476U 98053B 26071.35544332 .00001299 00000+0 46052-3 0 9994 2 25476 45.0072 71.3993 0001508 178.8193 181.2659 14.39250085435895 ORBCOMM FM23 1 25477U 98053C 26070.30836943 .00001077 00000+0 39712-3 0 9990 2 25477 45.0074 85.5320 0001057 196.7344 163.3470 14.38280318435843 ORBCOMM FM24 1 25478U 98053D 26070.96739038 .00001171 00000+0 42234-3 0 9998 2 25478 45.0073 78.6341 0001304 214.9884 145.0879 14.38931944436003 ORBCOMM FM25 1 25479U 98053E 26071.36105745 .00001341 00000+0 47710-3 0 9999 2 25479 45.0066 75.0798 0003307 181.8739 178.2098 14.38894770436353 ORBCOMM FM26 1 25480U 98053F 26071.35083516 .00001038 00000+0 38777-3 0 9997 2 25480 45.0065 73.6412 0005588 188.9376 171.1374 14.37826668436235 ORBCOMM FM27 1 25481U 98053G 26071.41167965 .00001340 00000+0 47651-3 0 9993 2 25481 45.0050 74.9340 0001906 269.0435 91.0195 14.38939424436294 ORBCOMM FM28 1 25482U 98053H 26071.56105944 .00001234 00000+0 44167-3 0 9990 2 25482 45.0071 11.4266 0004018 230.4960 129.5534 14.39035141437001 ORBCOMM FM30 1 25980U 99065A 26071.58826690 .00001069 00000+0 39671-3 0 9997 2 25980 45.0307 258.6194 0005965 271.2603 88.7562 14.37988121373076 ORBCOMM FM31 1 25981U 99065B 26071.50509886 .00001012 00000+0 37878-3 0 9990 2 25981 45.0218 252.4542 0003350 296.3097 63.7407 14.37910012372612 ORBCOMM FM32 1 25982U 99065C 26071.58909551 .00000983 00000+0 37616-3 0 9998 2 25982 45.0149 270.4225 0005601 296.0198 64.0073 14.36973091373196 ORBCOMM FM33 1 25983U 99065D 26071.58334903 .00001090 00000+0 38148-3 0 9993 2 25983 45.0278 162.1510 0008053 320.6711 39.3553 14.40795678374763 ORBCOMM FM36 1 25984U 99065E 26071.54473167 .00001314 00000+0 46785-3 0 9991 2 25984 45.0382 258.3085 0003120 199.3866 160.6865 14.38990788373069 ORBCOMM FM35 1 25985U 99065F 26071.58541898 .00001086 00000+0 40335-3 0 9994 2 25985 45.0389 265.3642 0003149 300.2900 59.7637 14.37880138373406 ORBCOMM FM34 1 25986U 99065G 26071.55641197 .00001002 00000+0 37660-3 0 9990 2 25986 45.0383 266.0143 0003496 244.8004 115.2482 14.37791924373510 ORBCOMM FM38 1 33060U 08031A 26071.48794432 .00001976 00000+0 26861-3 0 9999 2 33060 48.4384 115.2955 0003887 122.1432 237.9862 14.82747702954540 ORBCOMM FM41 1 33061U 08031B 26071.52937013 .00001897 00000+0 26173-3 0 9997 2 33061 48.4418 123.8468 0003054 103.2765 37.1081 14.82280843954022 ORBCOMM FM29 1 33062U 08031C 26071.55936849 .00002027 00000+0 27665-3 0 9990 2 33062 48.4369 131.1233 0004673 102.5539 51.3469 14.82458481953942 ORBCOMM FM39 1 33063U 08031D 26070.75866910 .00001666 00000+0 24108-3 0 9990 2 33063 48.4385 162.3138 0005738 64.7217 295.4293 14.80832608953431 ORBCOMM FM37 1 33064U 08031E 26071.59588754 .00001691 00000+0 24320-3 0 9995 2 33064 48.4377 146.4336 0004218 90.9664 51.1949 14.81026513953813 ORBCOMM FM40 1 33065U 08031F 26071.61044774 .00002237 00000+0 29414-3 0 9994 2 33065 48.4397 125.5547 0005159 109.8356 52.1096 14.83673533953996 VESSELSAT 1 1 37840U 11058C 26071.54498907 .00000398 00000+0 72071-4 0 9999 2 37840 19.9617 269.9710 0013561 258.6323 101.2558 14.11421324744264 ORBCOMM FM109 1 40086U 14040A 26071.32177295 .00000729 00000+0 19093-3 0 9991 2 40086 47.0028 189.4193 0001494 168.5642 191.5278 14.58728554620208 ORBCOMM FM107 1 40087U 14040B 26071.06228715 .00000679 00000+0 17993-3 0 9998 2 40087 47.0045 191.4953 0000159 51.6429 308.4471 14.58812333620244 ORBCOMM FM106 1 40088U 14040C 26071.05126542 .00001126 00000+0 21537-3 0 9990 2 40088 47.0619 351.9094 0016761 234.1471 125.7864 14.70310709622884 ORBCOMM FM111 1 40089U 14040D 26071.25495646 .00002520 00000+0 29095-3 0 9993 2 40089 46.9995 163.7289 0027836 36.0929 324.1841 14.88362031630138 ORBCOMM FM104 1 40090U 14040E 26070.79913677 .00000637 00000+0 17713-3 0 9993 2 40090 47.0041 229.6016 0016060 346.1592 13.8851 14.57170164619648 ORBCOMM FM103 1 40091U 14040F 26071.32419578 .00000854 00000+0 21748-3 0 9999 2 40091 47.0046 190.9803 0000843 69.4036 290.6940 14.58716515603248 ORBCOMM FM114 1 41179U 15081A 26071.47665945 .00000698 00000+0 18429-3 0 9998 2 41179 47.0039 99.1986 0001371 135.7337 224.3659 14.58735132543631 ORBCOMM FM119 1 41180U 15081B 26070.85960205 .00000716 00000+0 18830-3 0 9995 2 41180 47.0021 11.4752 0001189 234.4954 125.5821 14.58677647544798 ORBCOMM FM105 1 41181U 15081C 26071.29919943 .00000333 00000+0 13791-3 0 9994 2 41181 47.0022 40.6364 0000932 62.9927 297.1049 14.45496310539538 ORBCOMM FM110 1 41182U 15081D 26071.39736697 .00000867 00000+0 22020-3 0 9996 2 41182 47.0010 99.0447 0003268 329.2464 30.8230 14.58741095543497 ORBCOMM FM118 1 41183U 15081E 26071.43196346 .00000902 00000+0 22754-3 0 9997 2 41183 47.0032 99.1971 0003890 298.3247 61.7246 14.58737987543609 ORBCOMM FM112 1 41184U 15081F 26071.22945114 .00001034 00000+0 25561-3 0 9996 2 41184 47.0008 8.6536 0001018 119.9422 240.1565 14.58738039544795 ORBCOMM FM113 1 41185U 15081G 26070.86420074 .00000813 00000+0 20878-3 0 9999 2 41185 47.0024 10.7483 0000729 135.9976 224.0968 14.58736129544728 ORBCOMM FM115 1 41186U 15081H 26071.34236632 .00001071 00000+0 24035-3 0 9995 2 41186 46.9977 203.6128 0001591 233.9224 126.1516 14.63128114547039 ORBCOMM FM108 1 41187U 15081J 26070.89528214 .00000738 00000+0 19276-3 0 9995 2 41187 47.0045 282.1432 0002242 112.0094 248.1030 14.58747497545875 ORBCOMM FM117 1 41188U 15081K 26071.54577317 .00000826 00000+0 21155-3 0 9994 2 41188 47.0008 277.7346 0002681 124.2838 235.8302 14.58740742546015 ORBCOMM FM116 1 41189U 15081L 26071.11564506 .00000988 00000+0 24579-3 0 9996 2 41189 47.0040 9.5510 0002331 323.0874 36.9851 14.58734021544769